TimeGMT,TemperatureF,Dew PointF,Humidity,Sea Level PressureIn,VisibilityMPH,Wind Direction,Wind SpeedMPH,Gust SpeedMPH,PrecipitationIn,Events,Conditions,WindDirDegrees,DateUTC
12:00 AM,39,32,68,29.54,22,SW,13.8,,,,,230,2014-02-14 00:00:00
12:20 AM,39.2,32.0,75,29.53,-9999.0,SSW,8.1,-,N/A,,Clear,210,2014-02-14 00:20:00
12:50 AM,39.2,32.0,75,29.53,-9999.0,SW,11.5,-,N/A,,Clear,220,2014-02-14 00:50:00
1:00 AM,39,32,69,29.55,25,SSW,12.7,,,,,210,2014-02-14 01:00:00
1:20 AM,39.2,32.0,75,29.53,6.2,SSW,10.4,-,N/A,,Unknown,210,2014-02-14 01:20:00
1:50 AM,39.2,33.8,81,29.53,6.2,SSW,9.2,-,N/A,,Unknown,210,2014-02-14 01:50:00
2:00 AM,39,33,71,29.54,19,SSW,9.2,,,,,200,2014-02-14 02:00:00
2:20 AM,39.2,33.8,81,29.53,6.2,SSW,9.2,-,N/A,,Unknown,210,2014-02-14 02:20:00
2:50 AM,37.4,33.8,87,29.50,-9999.0,SSW,6.9,-,N/A,,Clear,200,2014-02-14 02:50:00
3:00 AM,38,33,76,29.52,18,SSW,9.2,,,,,200,2014-02-14 03:00:00
3:20 AM,37.4,33.8,87,29.50,-9999.0,South,3.5,-,N/A,,Clear,170,2014-02-14 03:20:00
3:50 AM,39.2,33.8,81,29.50,-9999.0,South,4.6,-,N/A,,Clear,180,2014-02-14 03:50:00
4:00 AM,38,34,78,29.52,19,South,6.9,,,,Mostly Cloudy,180,2014-02-14 04:00:00
4:20 AM,39.2,33.8,81,29.50,-9999.0,South,6.9,-,N/A,,Clear,180,2014-02-14 04:20:00
4:50 AM,39.2,35.6,87,29.50,-9999.0,South,5.8,-,N/A,,Clear,170,2014-02-14 04:50:00
5:00 AM,39,35,78,29.52,19,SSE,6.9,,,,Mostly Cloudy,150,2014-02-14 05:00:00
5:20 AM,39.2,35.6,87,29.50,-9999.0,South,6.9,-,N/A,,Clear,180,2014-02-14 05:20:00
5:50 AM,39.2,35.6,87,29.50,-9999.0,South,5.8,-,N/A,,Clear,170,2014-02-14 05:50:00
6:00 AM,40,35,78,29.51,19,South,8.1,,,,,170,2014-02-14 06:00:00
6:20 AM,39.2,35.6,87,29.50,-9999.0,SSE,8.1,-,N/A,,Clear,160,2014-02-14 06:20:00
6:50 AM,41.0,37.4,87,29.47,6.2,South,10.4,-,N/A,,Partly Cloudy,170,2014-02-14 06:50:00
7:00 AM,41,37,80,29.48,18,SSE,10.4,,,,Overcast,160,2014-02-14 07:00:00
7:20 AM,41.0,37.4,87,29.47,6.2,SSE,9.2,-,N/A,,Partly Cloudy,150,2014-02-14 07:20:00
7:50 AM,42.8,37.4,81,29.44,6.2,South,11.5,-,N/A,,Partly Cloudy,180,2014-02-14 07:50:00
8:00 AM,43,38,76,29.47,18,South,13.8,,,,Scattered Clouds,170,2014-02-14 08:00:00
8:20 AM,42.8,37.4,81,29.44,6.2,SSW,18.4,-,N/A,Rain,Light Rain,200,2014-02-14 08:20:00
8:50 AM,41.0,37.4,87,29.44,6.2,South,15.0,-,N/A,Rain,Light Rain,180,2014-02-14 08:50:00
9:00 AM,41,37,80,29.45,10,SSE,15.0,,,Rain,Light Rain Showers,160,2014-02-14 09:00:00
9:20 AM,41.0,37.4,87,29.42,6.2,SSE,11.5,-,N/A,Rain,Light Rain,150,2014-02-14 09:20:00
9:50 AM,41.0,37.4,87,29.39,6.2,SSE,15.0,-,N/A,Rain,Light Rain,150,2014-02-14 09:50:00
10:00 AM,41,38,85,29.39,25,SE,15.0,,,Rain,Light Rain,140,2014-02-14 10:00:00
10:20 AM,41.0,37.4,87,29.36,6.2,SE,19.6,-,N/A,Rain,Light Rain,140,2014-02-14 10:20:00
10:50 AM,41.0,37.4,87,29.36,6.2,SE,17.3,-,N/A,Rain,Light Rain,140,2014-02-14 10:50:00
11:00 AM,41,37,82,29.35,13,SE,19.6,,,Rain,Light Rain Showers,130,2014-02-14 11:00:00
11:20 AM,41.0,37.4,87,29.30,6.2,SE,20.7,-,N/A,Rain,Light Rain,140,2014-02-14 11:20:00
11:50 AM,41.0,37.4,87,29.30,6.2,SE,19.6,31.1,N/A,Rain,Light Rain,140,2014-02-14 11:50:00
12:00 PM,41,38,85,29.29,7,SE,19.6,,,Rain,Light Rain,140,2014-02-14 12:00:00
12:20 PM,41.0,39.2,93,29.24,6.2,SE,20.7,32.2,N/A,Rain,Light Rain,140,2014-02-14 12:20:00
12:50 PM,42.8,39.2,87,29.21,6.2,SE,16.1,-,N/A,Rain,Light Rain,140,2014-02-14 12:50:00
1:00 PM,42,40,88,29.21,12,SE,18.4,,,Rain,Light Rain,140,2014-02-14 13:00:00
1:20 PM,42.8,41.0,93,29.18,6.2,SE,18.4,-,N/A,Rain,Light Rain,140,2014-02-14 13:20:00
1:50 PM,42.8,41.0,93,29.15,3.7,SE,13.8,-,N/A,Rain,Rain,140,2014-02-14 13:50:00
2:00 PM,43,42,93,29.15,4,SE,15.0,,,Rain,Rain Showers,140,2014-02-14 14:00:00
2:20 PM,44.6,42.8,93,29.12,5.0,SE,12.7,-,N/A,Rain,Rain,130,2014-02-14 14:20:00
2:50 PM,46.4,44.6,93,29.06,6.2,SSE,13.8,-,N/A,Rain,Light Rain,150,2014-02-14 14:50:00
3:00 PM,47,45,92,29.08,19,SE,16.1,,,Rain,Light Rain,140,2014-02-14 15:00:00
3:20 PM,50.0,48.2,94,29.06,6.2,South,15.0,-,N/A,Rain,Light Rain,180,2014-02-14 15:20:00
3:50 PM,51.8,48.2,88,29.00,6.2,South,21.9,34.5,N/A,,Mostly Cloudy,180,2014-02-14 15:50:00
4:00 PM,53,49,80,29.01,14,South,21.9,,,Rain,Rain,180,2014-02-14 16:00:00
4:20 PM,53.6,48.2,82,28.97,6.2,South,24.2,36.8,N/A,,Mostly Cloudy,180,2014-02-14 16:20:00
4:50 PM,53.6,48.2,82,28.94,6.2,South,26.5,39.1,N/A,Rain,Light Rain,190,2014-02-14 16:50:00
5:00 PM,53,49,83,28.96,11,South,26.5,,,Rain,Rain,190,2014-02-14 17:00:00
5:20 PM,53.6,48.2,82,28.94,3.1,SSW,25.3,-,N/A,Rain,Light Rain,200,2014-02-14 17:20:00
5:50 PM,51.8,50.0,94,28.91,6.2,South,21.9,-,N/A,Rain,Light Rain,190,2014-02-14 17:50:00
6:00 PM,52,50,89,28.94,8,South,23.0,,,Rain,Light Rain Showers,180,2014-02-14 18:00:00
6:20 PM,53.6,48.2,82,28.91,6.2,SSW,28.8,41.4,N/A,Rain,Light Rain,200,2014-02-14 18:20:00
6:50 PM,53.6,46.4,77,28.91,6.2,SSW,32.2,48.3,N/A,,Scattered Clouds,200,2014-02-14 18:50:00
7:00 PM,54,45,63,28.90,14,South,28.8,,,Rain,Rain,190,2014-02-14 19:00:00
7:20 PM,53.6,42.8,67,28.88,6.2,SSW,31.1,48.3,N/A,,Scattered Clouds,200,2014-02-14 19:20:00
7:50 PM,51.8,42.8,71,28.85,6.2,SSW,35.7,49.5,N/A,Rain,Light Rain,200,2014-02-14 19:50:00
8:00 PM,52,43,64,28.87,9,South,29.9,,,Rain,Light Rain Showers,190,2014-02-14 20:00:00
8:20 PM,51.8,44.6,76,28.85,5.0,South,31.1,44.9,N/A,Rain,Rain,190,2014-02-14 20:20:00
8:50 PM,50.0,44.6,82,28.85,6.2,SSW,27.6,39.1,N/A,Rain,Light Rain,200,2014-02-14 20:50:00
9:00 PM,50,45,75,28.84,7,South,29.9,,,Rain,Light Rain,190,2014-02-14 21:00:00
9:20 PM,50.0,44.6,82,28.82,6.2,South,32.2,44.9,N/A,Rain,Light Rain,190,2014-02-14 21:20:00
9:50 PM,50.0,42.8,76,28.80,5.0,SSW,33.4,47.2,N/A,,Mostly Cloudy,200,2014-02-14 21:50:00
10:00 PM,51,43,65,28.81,9,SSW,33.4,,,Rain,Rain,200,2014-02-14 22:00:00
10:20 PM,50.0,41.0,71,28.80,6.2,SSW,35.7,51.8,N/A,,Mostly Cloudy,210,2014-02-14 22:20:00
10:50 PM,50.0,41.0,71,28.80,6.2,SW,34.5,55.2,N/A,,Mostly Cloudy,220,2014-02-14 22:50:00
11:00 PM,50,40,60,28.81,11,SSW,39.1,,,Rain,Rain,210,2014-02-14 23:00:00
11:20 PM,50.0,39.2,66,28.82,5.6,SW,39.1,56.4,N/A,Rain,Light Rain Showers,220,2014-02-14 23:20:00
11:50 PM,50.0,39.2,66,28.85,5.6,SW,36.8,52.9,N/A,,Mostly Cloudy,220,2014-02-14 23:50:00